{"data":{"norad_id":68948,"intl_designator":"2026-098AF","name":"KUIPER-00454","alt_names":[],"object_type":"PAYLOAD","status":"ACTIVE","operator":null,"country":"US","launch_date":"2026-04-30","launch_site_code":"FRGUI","launch_vehicle":null,"mission":null,"orbit_class":"UNKNOWN","rcs_meters":null,"size_class":null,"mass_kg":null,"dimensions":null,"purposes":[],"wikipedia_slug":null,"has_3d_model":false,"image_url":null,"decayed_at":null,"tle_current":{"epoch":"2026-05-24T10:57:08.218368Z","epoch_age_seconds":112195,"freshness":"FRESH","line1":"1 68948U 26098AF  26144.45634512 -.00044794  00000+0 -15546-2 0  9999","line2":"2 68948  51.8727 182.6925 0016321  60.7214 299.5399 15.29070351  3690","mean_motion":15.29070351,"eccentricity":0.0016321,"inclination_deg":51.8727,"raan_deg":182.6925,"arg_perigee_deg":60.7214,"mean_anomaly_deg":299.5399,"bstar":-0.0015546,"rev_number":369,"period_min":94.174869001825,"perigee_km":467.39920983242,"apogee_km":489.78093834767,"semimajor_km":6856.72707409,"source":"CELESTRAK","updated_at":"2026-05-25T13:38:08.798840Z"}}}